Bettles, AK

11:20 PM AKDT on August 24, 2019 (GMT -0800)
Bettles

Weather History for PABT - July, 2019

Change the Weather History Date:

Wednesday, July 17, 2019

  Actual Average Record
Temperature  
Mean Temperature 68 °F -  
Max Temperature 80 °F 69 °F 84 °F (1954)
Min Temperature 55 °F 50 °F 35 °F (2003)
Cooling Degree Days 2    
Growing Degree Days 18 (Base 50)    
Moisture  
Dew Point 50 °F    
Average Humidity 59    
Maximum Humidity 88    
Minimum Humidity 23    
Precipitation  
Precipitation 0.00 in - - ()
Sea Level Pressure  
Sea Level Pressure 29.60 in    
Wind  
Wind Speed 5 mph (South)    
Max Wind Speed 13 mph    
Max Gust Speed 22 mph    
Visibility 5 miles    
Events      
Averages and records for this station are not official NWS values.
T = Trace of Precipitation, MM = Missing Value Source: NWS Daily Summary

Daily Weather History Graph

Daily Weather History Graph

Search for Another Location

Airport or City:

Astronomy

Jul. 17, 2019 Rise Set
Actual Time 3:25 AM AKDT 12:54 AM AKDT
Civil Twilight Sun does not set Sun does not set
Nautical Twilight Sun does not set Sun does not set
Astronomical Twilight Sun does not set Sun does not set
Moon 1:03 AM AKDT (7/17) 4:20 AM AKDT (7/17)
Length of Visible Light 24h 00m
Length of Day
21h 29m
Full, 99% of the Moon is Illuminated
Jul 17
Full
Jul 24
Last Quarter
Jul 31
New
Aug 7
First Quarter
Aug 15
Full

Hourly Weather History & Observations

Time (AKDT) Temp. Dew Point Humidity Pressure Visibility Wind Dir Wind Speed Gust Speed Precip Events Conditions
12:32 AM 63.0 °F 52.0 °F 67% 29.54 in 1.5 mi SSE 4.6 mph - N/A   Smoke
12:41 AM 62.1 °F 52.0 °F 70% 29.54 in 0.8 mi Calm Calm - N/A   Smoke
12:53 AM 60.1 °F 51.1 °F 72% 29.56 in 1.2 mi Calm Calm - N/A   Smoke
1:48 AM 59.0 °F 51.8 °F 77% 29.55 in 2.0 mi SE 5.8 mph - N/A   Smoke
1:53 AM 57.9 °F 51.1 °F 78% 29.57 in 2.0 mi SE 5.8 mph - N/A   Smoke
2:01 AM 57.9 °F 51.1 °F 78% 29.55 in 1.5 mi SE 5.8 mph - N/A   Smoke
2:53 AM 57.9 °F 51.1 °F 78% 29.58 in 2.0 mi SE 6.9 mph - N/A   Smoke
3:53 AM 57.9 °F 51.1 °F 78% 29.59 in 1.5 mi SE 4.6 mph - N/A   Smoke
4:53 AM 57.0 °F 51.1 °F 81% 29.60 in 1.5 mi SE 3.5 mph - N/A   Smoke
5:51 AM 55.4 °F 51.8 °F 88% 29.59 in 2.5 mi SE 3.5 mph - N/A   Smoke
5:53 AM 55.9 °F 51.1 °F 84% 29.61 in 2.5 mi SE 3.5 mph - N/A   Smoke
6:53 AM 57.9 °F 53.1 °F 84% 29.61 in 2.0 mi Calm Calm - N/A   Smoke
7:53 AM 60.1 °F 53.1 °F 78% 29.62 in 1.5 mi Calm Calm - N/A   Smoke
8:14 AM 60.1 °F 53.1 °F 78% 29.60 in 3.0 mi Calm Calm - N/A   Smoke
8:53 AM 61.0 °F 54.0 °F 78% 29.62 in 3.0 mi Calm Calm - N/A   Smoke
9:53 AM 64.0 °F 53.1 °F 67% 29.63 in 5.0 mi SSE 4.6 mph - N/A   Smoke
10:53 AM 66.0 °F 54.0 °F 65% 29.62 in 5.0 mi South 3.5 mph - N/A   Smoke
11:53 AM 66.9 °F 51.1 °F 57% 29.63 in 5.0 mi Variable 4.6 mph - N/A   Smoke
12:53 PM 71.1 °F 54.0 °F 55% 29.63 in 5.0 mi SSW 6.9 mph - N/A   Smoke
1:53 PM 73.0 °F 53.1 °F 49% 29.62 in 5.0 mi Variable 3.5 mph - N/A   Smoke
2:53 PM 77.0 °F 50.0 °F 39% 29.61 in 10.0 mi South 9.2 mph - N/A   Smoke
3:53 PM 77.0 °F 46.0 °F 33% 29.60 in 10.0 mi SW 9.2 mph 16.1 mph N/A   Partly Cloudy
4:53 PM 79.0 °F 45.0 °F 30% 29.59 in 10.0 mi WSW 8.1 mph - N/A   Partly Cloudy
5:53 PM 79.0 °F 42.1 °F 27% 29.60 in 10.0 mi WSW 10.4 mph 19.6 mph N/A   Partly Cloudy
6:53 PM 78.1 °F 39.9 °F 25% 29.60 in 10.0 mi WSW 12.7 mph 17.3 mph N/A   Partly Cloudy
7:53 PM 75.9 °F 41.0 °F 29% 29.60 in 10.0 mi WSW 12.7 mph 21.9 mph N/A   Partly Cloudy
8:53 PM 73.0 °F 43.0 °F 34% 29.62 in 10.0 mi WSW 10.4 mph 17.3 mph N/A   Partly Cloudy
9:53 PM 70.0 °F 44.1 °F 39% 29.63 in 10.0 mi SW 8.1 mph - N/A   Scattered Clouds
11:53 PM 64.9 °F 46.0 °F 50% 29.66 in 2.0 mi SSW 6.9 mph - N/A   Smoke